Regional Weather Roundup
Issued by NWS

Home | Current Version | Previous Version | Text Only | Print | Product List | Glossary On
Versions: 1 2 3 4 5 6 7 8 9 10 11 12 13 14 15 16 17 18 19 20 21 22 23 24 25 26 27 28 29 30 31 32 33 34 35 36 37 38 39 40 41 42 43 44 45 46 47 48 49 50
000
ASUS44 KLIX 281307
RWRLA
LOUISIANA WEATHER ROUNDUP
NATIONAL WEATHER SERVICE NEW ORLEANS LA
800 AM CDT TUE JUL 28 2015

NOTE: "FAIR" INDICATES FEW OR NO CLOUDS BELOW 12,000 FEET WITH NO
      SIGNIFICANT WEATHER AND/OR OBSTRUCTIONS TO VISIBILITY.
      SKY/WX - SKY CONDITION AND SIGNIFICANT WEATHER.
      TMP - AIR TEMPERATURE.    DP   - DEWPOINT TEMPERATURE.
      RH  - RELATIVE HUMIDITY.  PRES - PRESSURE.
      HX  - HEAT INDEX.         WCI  - WIND CHILL INDEX.

*  THESE STATIONS ARE NOT NWS OR FAA STATIONS AND ARE NOT UNDER
   NWS QUALITY CONTROL.

LAZ040-048-061>063-065-066-069-281400-
SOUTHEAST LOUISIANA

CITY           SKY/WX    TMP DP  RH WIND       PRES   REMARKS
N.O. AUDUBON   NOT AVBL
N.O. INTL ARPT MOSUNNY   84  74  71 CALM      30.01R
N.O. LAKEFRONT MOSUNNY   89  74  60 NW5       30.02R HX  98
N.O. DOWNTOWN* FAIR      88  75  66 CALM      30.03R HX  97
RESERVE*       FAIR      82  76  83 CALM      30.02R
SLIDELL        SUNNY     80  77  90 CALM      30.01R
BATON ROUGE    SUNNY     81  76  84 CALM      30.02R
BOOTHVILLE     SUNNY     86  77  74 NW5       30.02R HX  97
BELLE CHASSE   MOSUNNY   83  78  85 CALM      30.01R
BOGALUSA*        N/A     78  73  84 CALM      30.03R
GALLIANO*      NOT AVBL
NEW ROADS*     FAIR     N/A N/A N/A CALM      30.02R
GONZALES*      FAIR      80  80 100 CALM      30.01R FOG
HAMMOND*       SUNNY     81  73  78 CALM      30.03R
HOUMA*         MOSUNNY   75  75 100 CALM      30.02R
PORT FOURCHON*   N/A     86  73  66 CALM      30.03R

$$

LAZ041-044-053-054-281400-
SOUTHWEST LOUISIANA

CITY           SKY/WX    TMP DP  RH WIND       PRES   REMARKS
LAKE CHARLES   SUNNY     81  77  88 CALM      30.01R
LAFAYETTE      SUNNY     81  76  84 CALM      30.02R
PATTERSON      SUNNY     82  77  83 CALM      30.01S
SALT POINT       N/A     83  78  85 CALM      30.00R
NEW IBERIA     SUNNY     81  77  88 CALM      30.02R
CHENAULT AIRPK SUNNY     81  77  89 CALM      30.01

$$

LAZ027-028-281400-
CENTRAL LOUISIANA

CITY           SKY/WX    TMP DP  RH WIND       PRES   REMARKS
FORT POLK      SUNNY     79  77  93 S3        30.01R
ALEXANDRIA INT SUNNY     79  77  94 S3        29.99R
ALEXANDRIA     SUNNY     81  76  84 CALM      30.01R

$$

LAZ001-002-281400-
NORTHWEST LOUISIANA

CITY           SKY/WX    TMP DP  RH WIND       PRES   REMARKS
SHREVEPORT     SUNNY     81  74  79 SW5       29.99R
BARKSDALE AFB  SUNNY     82  73  74 SW6       29.99R
DTN SHREVEPORT SUNNY     81  73  76 SW8       29.99R

$$

LAZ014-016-281400-
NORTHEAST LOUISIANA

CITY           SKY/WX    TMP DP  RH WIND       PRES   REMARKS
MONROE         SUNNY     80  76  87 SW7       30.01R
TALLULAH       SUNNY     82  77  84 VRB3      30.01R

$$



USA.gov is the U.S. government's official web portal to all federal, state and local government web resources and services.